Fort Nelson, British Columbia

4:57 PM PST on December 13, 2017 (GMT -0800)
Fort Nelson

Weather History for CYYE - October, 2012

Change the Weather History Date:

Tuesday, October 9, 2012

  Actual Average Record
Temperature  
Mean Temperature 37 °F -  
Max Temperature 46 °F 35 °F 55 °F (1999)
Min Temperature 28 °F 18 °F 20 °F (2016)
Degree Days  
Heating Degree Days 28    
Moisture  
Dew Point 32 °F    
Average Humidity 88    
Maximum Humidity 93    
Minimum Humidity 76    
Precipitation  
Precipitation 0.08 in 0.04 in - ()
Sea Level Pressure  
Sea Level Pressure 30.15 in    
Wind  
Wind Speed 6 mph ()    
Max Wind Speed 17 mph    
Max Gust Speed 25 mph    
Visibility 4.9 miles    
Events Fog , Rain , Snow    
Averages and records for this station are not official NWS values.
T = Trace of Precipitation, MM = Missing Value Source: Averaged Metar Reports

Daily Weather History Graph

Daily Weather History Graph

Search for Another Location

Airport or City:

Trip Planner

Search our weather history database for the weather conditions in past years. The results will help you decide how hot, cold, wet, or windy it might be!

Date:

Astronomy

Oct. 09, 2012 Rise Set
Actual Time 7:34 AM PDT 6:18 PM PDT
Civil Twilight 6:54 AM PDT 6:59 PM PDT
Nautical Twilight 6:07 AM PDT 7:45 PM PDT
Astronomical Twilight 5:20 AM PDT 8:32 PM PDT
Moon No Moon Rise 4:00 PM PDT (10/9)
Length of Visible Light 12h 04m
Length of Day
10h 44m
Waning Crescent, 35% of the Moon is Illuminated
Oct 9
Waning Crescent
Oct 15
New
Oct 21
First Quarter
Oct 29
Full
Nov 6
Last Quarter

Hourly Weather History & Observations

Time (PDT) Temp. Windchill Dew Point Humidity Pressure Visibility Wind Dir Wind Speed Gust Speed Precip Events Conditions
12:00 AM 35.6 °F - 30.2 °F 81% 30.05 in 15.0 mi ENE 2.3 mph - N/A   Scattered Clouds
1:00 AM 32.0 °F 28.7 °F 28.4 °F 87% 30.03 in 15.0 mi WSW 3.5 mph - N/A   Scattered Clouds
2:00 AM 39.2 °F 35.9 °F 33.8 °F 81% 30.00 in 10.0 mi South 4.6 mph - N/A   Mostly Cloudy
3:00 AM 39.2 °F - 33.8 °F 81% 29.99 in 10.0 mi Calm Calm - N/A   Overcast
4:00 AM 39.2 °F 37.0 °F 33.8 °F 81% 29.98 in 7.0 mi South 3.5 mph - N/A Rain Light Rain Showers
5:00 AM 36 °F - 34 °F 88% 29.97 in 7 mi WNW 2.3 mph - - Rain Light Rain Showers
5:00 AM 35.6 °F - 33.8 °F 93% 29.97 in 7.0 mi NNW 2.3 mph - N/A Rain Light Rain Showers
6:00 AM 37.4 °F - 35.6 °F 93% 29.96 in 3.0 mi ESE 2.3 mph - N/A Rain Light Rain Showers
7:00 AM 37.4 °F 34.9 °F 35.6 °F 93% 29.97 in 3.0 mi SSE 3.5 mph - N/A Rain Light Rain Showers
8:00 AM 37.4 °F - 35.6 °F 93% 29.97 in 3.0 mi Calm Calm - N/A Rain Light Rain Showers
9:00 AM 37.4 °F 34.9 °F 35.6 °F 93% 30.00 in 3.0 mi NW 3.5 mph - N/A Rain Light Rain Showers
10:00 AM 37.4 °F 30.8 °F 35.6 °F 93% 30.02 in 3.0 mi NW 9.2 mph - N/A Rain Light Rain Showers
11:00 AM 38 °F - 33 °F 76% 30.06 in 5 mi NW 17.3 mph - - Rain Light Rain Showers
11:00 AM 37.4 °F 28.2 °F 33.8 °F 87% 30.06 in 5.0 mi NW 16.1 mph 25.3 mph N/A Rain Light Rain Showers
12:00 PM 37.4 °F 28.5 °F 33.8 °F 87% 30.10 in 8.0 mi NW 15.0 mph 24.2 mph N/A Rain Light Rain Showers
1:00 PM 35.6 °F 26.6 °F 33.8 °F 93% 30.14 in 8.0 mi NW 13.8 mph 19.6 mph N/A Rain Light Rain Showers
2:00 PM 35.6 °F 25.9 °F 32.0 °F 87% 30.17 in 6.0 mi NNW 16.1 mph 24.2 mph N/A Rain Light Rain Showers
2:27 PM - - - N/A% - 5.0 mi NNW 16.1 mph 21.9 mph N/A Rain Light Rain Showers
3:00 PM 35.6 °F 27.1 °F 32.0 °F 87% 30.20 in 5.0 mi NW 12.7 mph 23.0 mph N/A Rain , Snow Light Rain Showers
4:00 PM 33.8 °F 24.8 °F 32.0 °F 93% 30.25 in 4.0 mi NNW 12.7 mph 19.6 mph N/A Snow Light Snow Showers
5:00 PM 35 °F - 31 °F 82% 30.29 in 4 mi NNW 12.7 mph - - Snow Light Snow Showers
5:00 PM 35.6 °F 27.1 °F 32.0 °F 87% 30.29 in 4.0 mi NNW 12.7 mph 20.7 mph N/A Snow Light Snow Showers
6:00 PM 32.0 °F 27.5 °F 30.2 °F 93% 30.32 in 0.5 mi North 4.6 mph - N/A Fog , Snow Light Snow Showers
6:24 PM 32.0 °F 23.0 °F 28.4 °F 87% - 0.5 mi North 11.5 mph 21.9 mph N/A Fog , Snow Light Snow Showers
7:00 PM 32.0 °F 24.2 °F 28.4 °F 87% 30.35 in 0.5 mi NNW 9.2 mph - N/A Fog , Snow Light Snow Showers
8:00 PM 32.0 °F 24.8 °F 30.2 °F 93% 30.37 in 1.0 mi NNW 8.1 mph - N/A Snow Light Snow Showers
9:00 PM 30.2 °F 22.6 °F 28.4 °F 93% 30.38 in 1.0 mi NNW 8.1 mph - N/A Snow Light Snow Showers
10:00 PM 30.2 °F 20.2 °F 26.6 °F 86% 30.41 in 1.0 mi NNW 12.7 mph 18.4 mph N/A Snow Light Snow Showers
11:00 PM 28 °F - 26 °F 86% 30.43 in 1 mi NNW 13.8 mph - - Snow Light Snow Showers
11:00 PM 28.4 °F 17.5 °F 24.8 °F 86% 30.43 in 1.0 mi NNW 13.8 mph - N/A Snow Light Snow Showers